Temp
22 24 25 25 25 25 25 25 24 24 24 23 23 23 23 23 23 22 22 21 21 20 19 20 20 21 21 21 21 21 21 21 21 21 20 20 20 19 19 19 18 17 16
25 23 24 25 24 24 24 24 24 24 23 23 23 22 22 22 22 22 21 21 20 18 19 20 20 20 21 21 21 21 21 20 20 20 20 20 20 20 19 19 19 18 17
25 23 24 24 24 24 24 23 23 23 23 23 22 22 22 21 21 21 20 20 19 19 20 20 20 20 21 21 21 21 20 20 19 19 19 20 20 20 19 19 18 18 18
24 24 24 24 24 23 23 23 23 23 22 22 22 22 21 21 21 20 20 20 19 18 19 20 20 21 20 20 21 21 20 20 20 19 19 18 19 20 20 19 18 18 18
23 23 23 23 23 23 22 22 22 22 22 22 22 21 21 21 20 20 20 20 19 19 19 20 20 20 20 20 20 21 20 20 19 19 20 19 20 19 20 19 19 18 18
22 23 23 23 23 23 22 22 22 22 21 21 21 21 21 20 20 20 20 20 20 19 19 20 20 20 20 20 21 21 21 20 20 20 20 19 19 19 20 19 18 18 18
22 23 23 23 23 22 22 22 22 22 21 21 21 21 21 20 20 20 20 19 19 19 19 19 19 19 20 20 20 21 21 20 20 20 19 19 19 19 20 20 18 18 17
23 23 23 22 22 22 22 22 22 22 21 21 21 21 21 20 20 20 20 19 19 19 19 19 19 19 19 20 20 21 21 20 20 19 20 19 19 19 20 20 18 18 17
24 23 22 22 22 22 22 22 21 21 21 21 21 20 20 20 20 20 19 19 19 19 19 19 19 19 19 20 20 21 20 19 19 19 19 19 19 19 19 19 18 18 17
23 22 22 21 21 21 21 21 21 21 21 21 20 20 20 20 20 19 19 19 18 18 18 19 19 19 19 19 20 20 20 19 19 19 19 19 19 18 18 19 18 17 17
22 21 21 20 21 21 20 20 20 20 20 20 20 20 20 20 20 19 19 19 18 18 18 18 19 19 19 19 19 20 20 18 19 19 19 19 18 19 19 19 18 17 17
21 21 20 21 21 20 20 20 19 19 19 20 20 20 20 20 20 20 19 19 18 18 18 18 18 18 18 19 19 19 20 18 19 19 18 18 18 18 18 18 18 18 17
22 22 21 21 21 20 20 20 20 19 19 19 19 19 19 19 19 19 19 19 19 19 18 18 18 18 19 19 19 19 20 19 19 19 19 18 18 18 18 18 18 18 17
23 22 22 22 21 21 20 20 21 20 20 19 19 19 19 19 19 19 19 19 20 19 19 18 19 19 19 19 18 19 20 19 18 19 18 18 17 17 17 18 18 17 16
23 23 22 22 22 21 20 21 21 21 20 21 20 20 20 20 20 19 20 20 20 19 19 19 19 19 19 19 19 19 19 19 18 18 18 17 17 17 17 17 16 16 16
24 24 23 22 22 22 21 21 22 21 21 21 20 20 20 20 20 19 19 20 20 19 19 19 19 19 19 19 19 20 19 19 19 18 18 17 17 17 16 16 15 15 15
25 24 24 23 23 22 22 22 22 21 21 21 21 21 20 20 20 20 20 20 20 19 20 20 19 19 19 19 20 19 19 19 19 18 17 17 16 16 16 15 15 15 14
24 25 24 23 23 22 23 22 22 21 21 22 21 21 21 20 20 20 20 20 20 20 20 20 20 20 20 20 19 19 19 19 18 18 16 17 16 15 15 14 14 13 13
26 23 23 23 23 22 22 22 21 21 20 21 21 21 21 20 20 20 20 20 20 20 20 20 20 20 20 20 19 19 19 18 18 18 17 16 15 15 15 14 14 14 13
22 23 23 22 22 21 21 22 21 20 20 20 20 20 20 20 20 19 19 19 19 19 19 19 20 20 20 19 19 19 19 18 18 18 17 16 15 15 15 14 14 13 13
21 21 21 21 20 20 20 20 19 19 19 19 19 19 19 19 19 19 18 18 18 18 19 19 19 19 19 19 19 19 19 18 18 18 17 16 15 14 14 14 14 13 13
21 21 20 20 19 19 20 19 19 19 19 19 19 19 19 19 19 18 18 18 18 18 18 18 18 18 18 18 18 16 15 16 17 17 16 16 15 14 14 13 13 13 12
20 20 19 19 19 19 19 19 19 18 18 18 18 18 18 18 18 17 17 17 17 17 17 18 17 16 15 17 18 18 14 14 13 17 16 15 15 14 13 13 13 13 12
19 20 19 19 19 18 18 18 18 18 17 18 18 18 18 18 18 17 17 17 17 17 17 16 16 15 15 13 15 17 18 16 13 13 16 15 14 14 13 13 13 12 12
19 19 19 18 18 18 18 18 18 17 17 17 17 18 17 17 17 17 17 16 16 17 17 16 16 16 15 14 13 15 15 15 15 13 12 14 14 12 13 13 13 12 13
18 18 18 18 17 17 17 18 18 17 17 17 17 17 17 17 17 16 16 17 16 15 15 15 15 14 14 14 13 13 14 15 15 15 12 13 14 14 12 12 12 13 12
Height
763 766 771 773 777 781 784 788 791 793 796 800 803 806 807 808 811 813 815 817 819 820 821 823 824 825 826 826 827 828 828 829 829 829 830 830 830 830 830 831 829 828 828
758 764 770 774 779 782 784 788 792 794 797 800 804 807 809 810 812 814 816 818 820 821 823 824 825 826 827 827 828 829 830 830 831 831 832 832 832 831 831 831 830 829 829
759 764 768 773 780 783 785 788 792 795 797 801 805 808 810 812 814 816 818 820 821 822 823 824 826 827 828 828 829 830 831 832 833 833 833 834 833 833 833 833 832 831 830
762 764 769 774 779 784 787 788 792 795 798 801 805 809 811 813 815 816 818 820 821 822 824 825 826 826 828 829 829 831 832 833 834 835 835 836 834 832 833 834 834 833 833
765 766 770 776 781 785 788 789 792 797 800 802 806 809 812 814 816 817 819 821 822 824 825 826 827 827 828 829 830 831 833 834 834 835 835 834 835 834 832 834 835 835 834
767 768 773 778 781 787 790 791 793 797 801 803 806 809 813 815 817 818 820 822 823 824 826 827 828 828 829 830 831 832 833 834 834 834 834 835 836 834 833 834 836 837 836
767 769 773 778 782 787 789 791 794 796 800 804 806 808 811 814 817 819 821 822 823 825 827 828 829 830 830 831 831 832 832 833 834 834 834 835 836 835 833 834 836 837 838
767 770 775 779 783 787 789 790 792 795 799 803 806 808 811 814 817 819 821 822 823 825 827 827 828 829 830 831 831 830 832 833 834 833 831 834 835 835 833 834 835 837 837
767 771 775 778 783 787 788 790 793 795 799 802 806 809 811 814 816 818 821 822 823 825 826 827 828 828 829 830 830 830 831 831 833 833 834 835 836 836 835 834 835 837 837
770 773 776 778 782 786 788 790 791 794 799 802 805 808 811 814 816 818 821 823 824 825 826 826 827 828 829 830 830 830 831 831 831 833 834 836 836 835 835 835 835 837 838
773 773 775 779 782 785 787 790 793 796 800 803 806 808 810 813 815 817 820 822 823 825 826 826 826 827 828 829 829 830 831 831 831 832 833 833 835 834 834 834 835 836 837
768 772 774 777 780 783 786 789 793 797 800 802 805 807 809 811 813 816 818 820 822 822 823 824 825 826 827 828 828 829 831 831 831 832 833 834 834 833 833 834 835 835 836
763 767 772 775 780 781 783 787 792 796 800 803 805 807 809 811 813 815 817 818 819 819 820 821 822 823 824 825 826 827 829 830 830 830 831 832 832 832 832 833 832 832 834
756 760 765 770 776 779 783 787 790 794 798 800 803 806 808 810 812 813 814 815 816 817 818 819 820 821 822 824 825 825 827 828 829 829 829 830 830 831 830 830 830 831 831
752 755 760 765 770 777 782 786 789 791 794 796 799 801 804 806 808 810 812 814 815 816 817 818 819 820 820 822 823 825 825 824 825 826 826 827 828 827 828 828 829 830 831
746 752 757 762 767 773 779 783 786 789 792 794 796 798 800 803 806 808 809 810 812 814 815 815 816 817 818 820 821 823 824 824 823 822 822 823 825 825 825 826 827 829 830
740 748 753 758 764 769 776 783 785 786 789 791 794 796 798 801 803 805 808 809 810 812 811 812 813 814 816 817 818 820 820 821 821 820 820 821 821 821 822 825 826 827 828
743 746 749 755 760 765 771 778 782 785 788 788 790 793 796 798 801 803 805 806 808 809 810 809 811 813 814 815 816 818 819 820 821 820 818 818 819 820 821 823 825 826 826
741 746 750 754 759 764 768 773 777 781 783 786 788 791 793 796 798 799 801 803 805 805 806 807 807 809 811 813 814 816 816 816 818 818 817 817 818 819 819 820 822 824 826
745 745 750 756 760 766 768 772 775 778 779 782 784 786 789 792 794 796 797 799 801 802 803 804 805 806 806 808 810 812 813 813 814 812 813 814 814 814 815 816 817 819 820
751 751 751 755 762 765 767 771 776 777 779 781 781 783 785 788 791 793 794 796 798 799 800 801 802 803 802 805 807 808 807 808 808 808 810 809 810 810 811 811 813 814 815
753 755 756 759 761 763 766 769 772 777 779 780 781 781 783 785 787 789 790 791 792 795 796 797 798 798 798 801 803 803 805 806 803 805 803 803 805 807 807 808 809 809 811
755 757 758 760 761 762 767 770 772 775 778 780 781 781 782 784 785 787 788 789 790 791 791 792 793 795 795 796 797 798 802 800 798 798 798 799 799 799 801 803 804 805 807
754 757 759 760 761 763 767 769 772 775 777 780 780 781 783 783 784 785 786 787 787 788 788 789 790 790 790 790 794 793 791 790 794 795 792 790 791 792 792 793 797 797 799
752 757 760 762 764 766 767 770 772 775 777 778 780 781 782 782 782 782 783 784 785 785 786 787 787 788 787 785 787 788 788 787 787 786 787 785 786 784 784 783 785 786 787
752 757 761 764 766 768 769 770 771 773 774 775 777 778 779 780 780 781 781 781 782 782 783 783 784 784 784 782 782 782 782 781 779 780 778 776 773 772 773 774 774 779 780
Wind_Speed
29 31 28 26 24 22 22 22 22 21 19 17 16 16 16 17 17 17 16 15 14 13 13 11 9 8 7 7 9 10 11 12 12 12 13 13 13 15 15 9 13 14 15
38 32 28 25 23 21 22 22 22 20 19 17 16 16 16 16 16 15 14 12 10 12 10 9 8 7 6 7 8 9 10 10 12 12 13 12 12 11 12 12 14 14 15
38 32 28 25 22 21 22 23 21 20 19 18 16 15 15 15 15 14 12 11 9 10 9 7 6 6 6 5 6 7 8 8 9 11 13 9 11 11 11 12 12 14 13
36 32 28 25 22 20 21 22 21 20 19 18 16 15 15 15 14 13 11 9 9 9 8 7 6 6 5 4 4 4 5 5 5 6 2 2 6 10 10 11 11 11 11
31 30 27 24 22 21 20 21 20 18 17 17 16 15 15 14 13 12 10 8 7 7 6 5 5 5 4 3 3 2 2 1 0 1 2 9 6 8 9 10 9 8 10
26 26 26 24 22 20 20 19 19 18 16 17 16 15 14 13 12 11 9 8 7 7 5 4 4 3 3 2 1 1 1 2 3 2 4 14 7 8 9 8 7 8 9
26 24 26 24 22 21 20 19 18 18 17 17 17 17 16 14 12 10 9 8 7 6 4 3 2 2 1 0 0 2 3 3 3 5 4 11 8 8 9 7 7 7 8
27 23 25 24 23 21 20 19 19 18 18 18 17 17 16 14 12 11 9 9 8 7 5 3 2 2 1 2 2 2 4 5 2 5 5 14 11 8 7 6 6 6 6
25 24 26 26 23 21 19 18 18 18 19 18 18 17 15 14 13 11 10 10 9 8 7 4 4 4 3 3 3 3 3 3 3 6 8 12 9 7 5 6 5 4 4
22 22 28 27 25 22 20 19 19 19 19 19 18 17 15 15 13 12 11 11 10 9 8 5 6 6 5 5 5 4 4 1 3 9 10 9 7 6 6 4 3 3 2
20 18 27 26 24 22 20 19 18 18 18 18 17 17 17 15 14 14 12 11 10 10 10 8 8 8 7 7 7 6 5 4 7 9 11 10 8 5 4 2 3 2 2
24 19 24 24 24 23 21 20 18 18 18 18 18 18 17 16 14 13 13 12 11 11 12 11 10 9 8 7 5 7 6 6 7 7 9 8 6 4 3 3 4 6 6
27 24 24 22 22 22 20 21 20 18 18 17 17 17 16 15 13 13 14 15 13 14 15 14 13 12 11 9 7 5 7 9 9 9 9 9 8 6 3 4 5 8 10
35 32 30 25 22 21 21 19 21 19 19 18 17 16 17 17 16 18 21 19 17 19 17 17 14 12 13 11 10 12 10 11 14 10 10 10 9 7 5 6 5 3 13
32 35 34 31 27 22 23 22 20 21 22 21 22 20 20 20 20 22 19 20 20 17 16 15 13 9 9 12 10 10 9 11 14 12 11 13 11 9 7 5 4 5 11
33 36 35 34 31 25 25 26 24 22 22 22 23 24 23 21 23 23 22 20 20 20 19 19 19 14 13 13 16 16 11 11 12 16 15 14 12 11 9 6 8 10 11
38 40 38 36 32 29 27 20 15 24 25 28 26 26 27 26 23 22 21 22 20 19 25 24 20 16 19 19 17 16 18 14 15 12 15 18 16 14 13 12 12 13 13
26 39 37 38 36 31 27 21 14 12 17 21 27 23 25 27 23 22 24 22 22 20 12 22 22 20 16 16 16 19 19 19 17 17 16 19 19 17 16 15 16 16 15
14 30 31 36 35 33 29 26 17 13 13 14 16 19 23 24 22 22 23 23 22 22 18 15 19 20 21 19 18 20 22 24 20 19 21 20 21 20 20 20 19 16 14
20 31 30 30 28 24 21 19 16 14 14 14 12 17 16 18 17 17 19 21 21 25 22 17 19 21 22 24 22 23 24 25 25 26 25 24 25 25 25 24 23 22 20
12 18 22 22 19 20 18 15 10 8 9 13 14 11 16 16 17 19 19 21 20 22 25 24 21 22 24 23 20 24 22 28 29 30 28 29 29 29 28 28 28 27 25
11 14 17 15 16 16 17 18 14 14 11 12 11 13 16 17 16 18 20 21 22 20 20 21 23 23 25 26 20 4 3 11 28 29 28 32 33 32 32 30 30 29 26
16 18 23 21 15 14 15 13 11 11 7 6 7 7 7 8 11 16 19 19 20 22 24 27 27 28 19 23 31 15 2 5 4 21 28 32 35 35 36 34 33 32 28
16 18 16 17 20 21 16 14 11 8 9 5 4 8 3 6 7 8 9 9 14 16 19 22 24 24 25 20 23 33 32 4 4 2 22 29 36 40 41 40 37 35 33
18 16 15 12 14 15 15 14 12 11 7 5 5 5 3 2 5 6 8 12 15 16 18 20 20 23 26 24 25 21 25 26 17 3 4 11 30 36 42 45 45 42 39
18 14 12 12 10 9 9 8 7 5 5 6 7 7 5 4 4 7 7 9 12 12 13 15 16 20 24 27 27 28 28 20 24 21 6 7 15 25 38 43 45 46 41
Wind_Direction
153 156 156 152 151 151 150 152 152 149 145 139 134 130 124 120 115 109 106 106 108 107 109 112 111 103 91 88 88 89 89 87 85 85 84 85 90 88 92 73 71 69 69
159 157 157 153 153 152 151 153 155 152 148 143 140 136 132 127 123 118 114 110 109 108 111 110 104 95 91 92 94 96 95 90 89 90 87 89 88 87 81 75 70 69 72
157 157 154 154 154 153 152 154 156 155 152 149 145 141 138 134 129 124 119 117 112 118 117 113 106 103 100 92 94 100 102 96 103 109 82 77 91 85 79 72 72 68 67
158 155 154 155 155 155 155 155 157 158 155 153 150 149 147 142 137 132 130 129 125 121 126 128 127 116 113 108 102 118 119 110 116 141 187 132 114 101 84 77 70 65 62
157 155 154 154 155 156 157 157 157 160 159 157 155 154 153 150 148 145 141 138 130 129 133 135 131 127 127 119 116 133 153 110 266 147 93 186 154 114 99 83 71 69 67
158 156 157 158 156 159 161 159 159 161 164 162 161 159 160 160 159 154 150 149 143 142 145 142 141 134 134 127 103 214 248 294 352 27 349 174 161 126 101 86 78 71 70
157 159 165 164 163 164 162 161 163 165 168 169 168 168 167 169 168 166 161 157 149 149 151 139 141 155 151 22 8 287 287 317 10 27 145 177 163 136 110 102 91 80 73
157 161 172 170 170 170 168 166 168 167 170 173 174 173 171 173 175 175 170 167 164 163 164 156 171 213 274 296 303 283 304 331 42 38 114 184 157 148 121 110 98 93 84
155 165 173 176 176 175 172 168 168 168 173 175 176 176 176 180 181 182 182 181 180 179 177 186 221 222 230 257 272 270 302 320 48 128 153 156 169 152 127 121 101 94 94
157 170 176 178 177 176 172 172 171 172 176 177 178 179 182 183 185 186 189 192 195 200 207 220 226 234 246 257 259 256 249 351 136 158 164 164 158 140 132 108 97 98 90
158 169 176 177 178 179 177 176 176 177 178 180 180 182 186 187 188 191 195 200 208 213 221 235 232 239 249 256 261 257 245 95 147 165 165 163 168 159 157 167 171 199 208
155 163 173 178 180 178 178 179 180 181 183 185 186 189 193 193 195 199 197 201 211 221 232 239 239 243 247 251 260 252 237 162 178 179 171 176 183 186 196 224 240 231 219
170 168 177 181 183 177 181 183 184 187 188 189 194 199 196 193 197 202 196 207 222 235 237 239 243 242 241 234 226 248 228 202 224 217 202 205 213 218 247 260 257 243 214
174 178 178 179 181 180 183 185 191 192 194 195 199 206 205 197 207 212 213 214 228 237 239 243 244 248 240 229 226 242 215 227 215 217 216 215 219 226 241 256 284 225 193
172 179 181 179 177 178 186 194 193 201 200 204 203 208 207 204 204 214 217 222 234 238 235 229 227 236 227 217 250 234 227 204 215 224 220 212 216 230 236 244 144 161 180
176 178 180 181 180 173 188 197 200 202 202 203 204 208 211 207 209 213 217 224 231 240 241 230 224 224 222 225 236 240 238 224 231 227 224 211 219 226 222 189 158 157 179
177 176 179 179 182 177 186 191 206 209 206 208 211 214 216 214 218 220 226 226 233 240 248 228 219 220 213 218 240 239 236 232 236 226 209 207 207 216 217 197 184 180 175
159 172 178 178 178 180 181 198 187 174 201 216 211 216 218 218 221 230 233 234 238 246 243 217 205 214 218 227 234 236 234 231 227 237 223 208 210 214 207 201 198 195 191
139 157 163 174 176 180 181 194 190 195 183 187 206 217 216 221 235 235 236 239 239 245 243 225 216 221 225 233 239 243 231 228 229 229 232 211 212 214 213 212 208 209 208
93 150 161 162 164 171 178 198 217 225 211 213 197 197 209 222 222 233 238 243 242 241 247 241 235 229 232 238 238 245 235 229 224 227 227 224 214 215 216 217 217 213 216
102 113 140 147 162 168 164 170 199 211 213 234 232 221 222 229 236 241 243 243 245 242 242 245 242 237 228 230 234 236 237 227 223 227 223 226 217 219 219 217 220 221 218
77 117 139 154 163 177 179 180 185 203 225 235 235 231 233 237 242 243 245 246 246 237 241 245 247 240 235 232 226 211 210 237 230 226 224 223 225 222 225 222 222 224 224
92 99 99 104 102 174 175 158 148 149 147 186 214 214 218 233 245 247 251 257 262 263 260 264 261 251 252 246 229 216 170 221 214 222 227 224 226 222 225 226 223 225 224
108 105 101 96 90 119 134 149 147 150 151 89 42 223 219 245 247 246 247 255 270 270 266 267 269 268 266 237 244 234 239 208 199 270 231 224 225 223 220 222 223 220 223
123 109 112 112 102 103 118 117 113 103 97 83 87 98 101 196 265 266 257 259 267 267 270 272 273 271 271 249 230 240 247 251 247 182 211 223 229 223 224 220 219 219 219
138 133 115 123 113 109 110 106 98 80 46 18 5 3 1 347 346 227 258 273 266 268 272 281 289 284 281 269 252 239 234 235 236 243 233 227 227 221 216 218 214 216 215